ECMWFFLT1_sfc_dewp_000.txt.gz
Dewpoint
55 56 57 57 58 58 59 59 58 58 61 62 62 62 63 63 63 63 64 64 62 62 63 65 67 67 67 67 67 67 67 67 68 68 67 67 66 65 65 66 65 65 65 64 65 67 66 68 68 67 67 68 67 67 68 68 68 68 68 69 69 68 69
55 56 57 58 57 58 59 59 59 59 59 61 61 62 62 62 63 63 63 63 62 62 63 65 68 68 67 67 68 67 67 65 68 67 67 66 67 66 66 66 66 66 65 65 66 67 68 68 67 67 68 68 66 66 67 68 68 67 68 68 68 69 68
53 54 56 57 57 57 58 59 59 60 59 61 62 62 61 62 63 62 61 62 62 62 63 64 66 67 67 67 66 66 67 66 66 66 64 65 66 67 67 66 66 66 67 67 67 68 69 68 67 67 67 67 67 67 67 67 69 67 65 65 68 68 68
53 53 54 55 56 55 57 57 60 58 60 61 60 61 61 62 62 61 61 61 61 61 61 62 62 65 67 67 66 66 66 66 65 66 66 65 65 66 66 66 67 67 67 67 67 68 68 68 68 68 68 68 67 67 67 67 67 67 67 67 67 68 68
53 53 54 56 56 56 56 56 59 57 58 60 61 63 62 61 61 60 60 62 60 60 61 61 62 64 66 66 66 67 67 66 66 66 66 66 66 65 65 65 65 66 66 67 68 68 67 67 68 68 67 65 66 67 67 67 67 67 67 66 66 65 68
53 54 54 53 54 55 55 55 56 56 58 59 60 61 61 61 61 60 60 60 60 61 60 60 61 64 64 65 65 66 66 65 65 66 65 66 65 65 64 64 65 65 65 66 67 67 66 67 66 66 66 67 67 67 67 67 67 67 68 68 67 67 68
53 54 54 54 55 55 54 53 55 58 59 61 62 64 62 62 61 60 61 60 60 59 59 59 61 63 63 64 64 64 63 64 64 64 64 64 64 64 64 64 65 65 65 65 65 66 66 66 65 66 66 66 67 67 67 67 66 66 67 67 67 67 67
54 54 54 54 54 52 54 56 58 59 62 62 62 62 63 62 61 61 60 59 59 59 58 58 62 63 63 63 63 63 63 63 63 63 63 64 63 64 64 64 64 65 65 65 65 65 65 65 66 66 66 66 66 67 67 66 66 66 67 66 66 66 66
54 54 54 53 52 53 56 58 59 60 61 62 62 62 62 62 61 61 60 60 59 59 57 59 62 63 63 63 62 62 62 62 62 62 63 62 62 62 63 64 64 65 65 64 64 65 66 66 67 66 66 65 65 65 65 66 66 67 66 66 66 65 65
54 54 54 54 54 55 57 59 60 61 61 61 61 61 62 61 61 61 61 61 59 58 57 61 62 63 63 62 61 61 61 61 62 62 62 62 62 62 62 63 64 66 65 65 65 65 66 66 66 66 65 65 66 66 65 65 66 66 66 66 65 65 65
55 55 55 55 57 57 58 60 59 59 59 60 61 61 61 61 61 61 61 61 60 59 58 61 62 62 62 61 61 60 60 61 61 61 61 61 62 62 63 63 64 65 65 65 65 65 66 66 66 65 65 65 65 65 65 65 65 65 65 65 66 67 66
55 55 55 55 57 58 58 58 59 58 60 60 61 60 61 61 61 61 61 61 61 59 60 61 62 63 61 61 60 60 60 61 61 61 61 62 62 62 63 64 64 65 66 66 66 66 66 66 66 66 65 66 66 65 65 65 65 65 65 65 66 66 66
54 55 55 55 56 57 58 58 58 59 60 60 60 61 61 61 61 61 61 61 61 60 60 61 62 61 60 61 60 60 60 60 61 61 62 62 62 62 63 63 65 66 66 67 67 66 66 66 66 66 65 66 66 66 65 65 65 65 65 66 66 66 65
59 55 56 56 57 57 57 57 58 58 59 60 61 61 61 61 61 61 61 60 61 60 61 63 61 59 60 60 60 60 60 61 61 62 62 62 63 62 62 63 64 65 66 67 67 67 66 65 65 65 65 65 66 66 66 65 65 65 65 66 66 67 66
53 54 55 56 55 56 57 57 57 58 59 60 60 60 60 60 60 60 60 60 59 59 58 62 60 59 59 60 60 60 61 61 62 63 63 62 62 62 62 62 63 64 65 66 66 67 66 66 65 64 64 64 65 65 66 66 66 66 66 65 65 65 66
52 53 54 54 55 55 56 57 58 58 59 59 59 59 59 59 59 59 59 58 58 57 58 61 60 58 59 60 60 61 61 62 63 63 62 61 61 61 61 62 62 63 64 65 66 66 66 65 65 64 64 64 64 65 65 66 66 64 59 60 62 63 64
51 53 54 54 54 54 55 57 58 58 58 58 59 58 58 57 58 58 59 59 58 58 58 58 58 58 59 59 60 61 62 62 62 62 61 60 61 61 61 61 62 63 63 64 64 65 65 65 64 64 64 64 64 64 64 65 65 60 59 61 61 61 62
49 51 53 54 54 54 55 57 57 57 57 58 58 58 57 58 58 58 57 57 57 58 59 58 58 58 59 59 60 61 61 62 61 61 60 60 60 60 61 62 62 62 62 62 63 64 65 64 64 64 64 64 63 63 64 65 62 58 58 60 60 61 62
49 51 52 52 53 55 56 56 56 57 57 58 58 58 58 58 58 57 57 57 57 59 59 59 59 59 59 59 59 60 61 62 62 61 61 60 60 60 61 61 62 61 61 61 62 64 63 63 63 63 63 63 63 64 64 64 60 57 58 59 59 60 62
49 51 52 52 53 54 55 56 57 58 58 58 59 59 59 60 57 57 58 58 59 58 58 57 58 58 59 59 59 59 60 61 61 61 61 61 60 60 60 61 61 61 61 62 63 62 62 63 62 63 62 63 63 64 64 64 58 57 57 57 57 59 62
50 52 52 53 54 55 55 55 56 57 58 59 59 60 59 58 60 60 59 59 58 58 57 57 56 57 58 58 59 58 58 58 58 59 60 61 61 61 61 61 61 60 60 61 61 61 62 63 62 63 63 63 64 64 64 64 57 56 56 55 56 58 63
50 53 54 54 54 54 55 55 56 57 57 60 62 60 58 58 59 58 57 56 56 56 57 56 56 56 57 58 58 57 58 57 58 59 60 61 61 61 61 61 60 60 60 62 62 63 63 63 62 63 62 62 64 64 63 63 58 55 55 55 56 59 65
50 51 53 53 53 54 56 56 56 57 60 59 58 59 59 58 59 58 57 55 56 56 55 54 55 56 56 59 57 57 57 57 58 59 60 61 61 61 61 60 60 60 61 60 61 62 63 63 62 63 62 62 63 63 63 62 59 55 54 54 55 60 65
50 52 54 53 55 55 57 57 57 58 59 57 58 59 59 60 59 58 57 57 56 56 55 55 55 55 58 57 56 56 56 57 58 58 59 60 61 61 61 61 60 60 60 60 60 61 63 63 62 63 62 62 62 63 63 63 60 54 53 54 55 59 64
52 53 53 53 54 55 57 57 57 59 61 58 58 58 60 59 58 56 56 58 57 57 56 55 56 57 57 56 55 56 57 58 58 58 58 60 61 62 61 61 60 60 60 59 59 61 62 63 62 62 62 62 63 64 63 64 61 55 53 54 54 60 63
52 52 53 54 54 56 56 58 61 58 57 58 58 59 60 60 59 59 58 58 58 57 56 56 57 57 57 57 57 58 59 58 58 59 59 60 61 62 61 62 60 58 58 57 58 59 61 62 62 62 62 63 63 63 63 64 63 61 52 52 54 56 62
51 51 52 53 54 62 57 56 55 54 55 56 58 60 59 58 57 59 62 62 59 59 59 58 58 58 58 58 58 58 57 58 58 59 60 61 61 62 62 60 58 58 58 58 58 58 60 61 61 62 62 63 63 63 63 65 63 63 53 52 53 55 58
52 53 53 58 61 58 55 56 57 57 58 58 59 59 58 58 57 58 58 59 58 58 58 59 59 59 57 57 57 58 58 58 59 61 62 62 62 61 60 58 58 58 59 59 58 58 56 58 61 62 61 62 63 63 62 64 64 62 59 52 51 52 54
49 52 55 57 57 61 55 55 56 56 56 58 59 59 58 57 57 58 59 58 58 59 60 60 60 59 57 57 58 58 59 58 58 59 61 62 62 60 59 58 58 58 60 59 58 58 55 56 57 57 58 61 61 63 62 63 63 60 61 55 51 50 52
50 52 52 52 52 56 59 54 54 54 53 55 57 57 58 59 58 59 60 58 58 58 59 59 60 59 58 59 58 57 56 57 59 56 56 58 59 59 58 58 59 59 58 58 58 56 55 54 54 53 54 58 60 61 62 63 62 62 60 59 53 50 49
49 49 48 48 51 57 56 53 54 55 54 55 56 57 58 59 58 60 60 59 59 60 59 60 59 59 58 57 55 55 56 56 56 56 55 55 56 57 57 58 58 56 56 58 57 56 55 53 54 52 53 56 59 60 60 62 62 61 61 61 59 54 51
48 48 48 49 53 58 54 55 55 55 55 56 57 57 59 59 58 57 58 58 58 58 58 59 59 58 57 56 55 54 55 55 56 55 55 56 56 57 57 57 56 55 55 56 55 55 56 55 54 53 53 55 58 59 60 61 60 60 61 63 61 59 55
49 50 50 51 54 58 54 55 55 55 55 55 56 59 59 58 58 58 58 59 59 57 58 59 59 59 57 54 53 53 55 57 56 56 55 54 53 52 53 54 54 53 53 52 52 54 55 54 54 53 53 54 56 58 59 60 60 60 61 61 62 62 60
51 54 53 53 55 57 54 54 53 54 55 56 56 58 59 58 58 58 57 57 56 55 56 60 59 56 54 52 54 55 56 56 61 56 52 51 52 51 52 53 54 52 52 51 53 54 53 52 53 52 52 52 55 57 58 59 59 58 57 57 57 59 62
55 56 57 57 57 57 54 54 54 55 56 55 56 57 57 57 58 57 55 54 54 54 56 57 60 56 52 53 54 53 57 52 56 55 52 51 53 53 53 53 54 53 53 53 56 54 53 53 52 54 52 54 55 56 57 58 57 56 52 55 48 50 55
57 57 57 57 57 56 55 57 55 56 56 55 55 56 56 56 56 55 56 54 55 56 52 57 56 56 53 53 50 51 56 53 53 54 53 53 53 53 53 60 52 51 53 52 55 52 47 48 52 53 54 55 55 56 56 54 55 48 43 42 42 43 41
57 57 56 57 56 56 56 56 58 57 56 55 56 57 58 58 57 57 58 57 56 56 54 57 56 55 52 53 51 54 56 54 53 54 54 54 53 52 54 54 53 48 48 51 52 49 44 43 41 42 45 53 53 53 48 46 43 42 41 41 41 40 40
56 56 56 57 55 55 55 56 56 56 56 55 56 56 56 58 58 57 57 57 56 57 55 55 56 55 54 53 52 58 62 55 54 56 55 53 53 53 54 52 52 52 49 47 47 47 45 43 44 42 41 41 44 48 53 49 43 40 41 40 41 41 40

ECMWFFLT1_sfc_dewp_006.txt.gz
Dewpoint
59 59 59 59 59 59 59 59 59 58 60 61 61 61 62 63 63 63 62 62 62 61 62 62 63 63 63 64 65 66 66 66 66 66 66 66 66 66 66 65 65 65 65 65 65 66 66 67 67 67 68 68 68 68 68 68 69 69 69 69 69 69 69
58 58 58 59 59 58 58 59 58 58 60 61 61 62 62 62 63 63 62 62 61 61 62 62 65 62 62 64 65 65 65 66 66 67 67 66 66 66 66 65 65 65 65 66 66 66 67 67 67 67 68 68 68 68 68 68 68 68 68 68 68 68 68
57 58 58 58 58 58 58 58 58 59 60 61 61 61 61 62 63 62 63 63 61 61 61 61 65 62 62 63 64 65 64 65 66 65 65 65 65 65 66 66 66 65 66 66 66 66 67 67 67 68 67 68 68 68 68 68 68 68 67 67 67 67 67
57 57 57 58 58 58 58 58 59 59 60 61 61 61 61 62 63 62 62 62 60 63 61 61 61 62 62 63 64 64 64 65 65 65 65 65 64 65 65 65 64 65 64 65 65 66 66 67 67 67 67 67 67 67 67 67 67 67 67 67 67 67 67
56 57 57 57 57 57 57 57 58 58 59 60 61 63 61 62 62 62 61 62 60 60 61 61 61 62 63 63 63 64 65 64 64 64 64 64 64 64 64 63 64 64 64 64 65 66 66 66 66 66 66 66 66 66 66 66 66 67 66 66 66 66 66
56 56 56 56 56 56 56 56 57 58 58 59 60 61 62 62 61 60 61 62 63 63 61 60 60 62 63 62 63 63 63 63 63 64 64 64 63 63 63 63 63 63 64 64 65 65 65 65 65 66 65 66 66 66 66 66 66 66 66 66 66 66 66
55 56 56 56 56 56 56 55 56 58 59 60 60 62 63 61 60 60 60 61 61 61 59 59 60 61 61 63 63 63 62 62 62 62 63 63 63 63 63 63 63 63 63 64 64 65 65 65 65 65 65 65 66 66 65 66 65 66 66 65 65 66 66
55 55 56 56 55 55 54 55 56 58 59 60 60 61 62 61 61 60 60 60 60 59 59 58 60 61 61 62 63 62 62 61 62 62 62 62 62 63 62 62 62 62 63 63 64 65 65 65 65 65 65 65 66 66 66 65 65 65 65 65 64 64 65
54 55 55 55 54 54 54 55 56 58 59 60 60 61 62 62 61 61 60 60 60 59 58 58 59 61 62 62 62 62 61 61 61 61 62 62 62 62 62 62 62 63 63 64 64 65 65 65 65 66 65 65 66 66 65 65 65 65 64 65 64 63 64
53 54 54 54 54 54 55 56 57 58 59 60 60 61 61 61 61 61 61 61 60 60 59 58 59 61 61 62 62 61 61 61 61 61 61 61 62 62 62 62 62 63 63 64 65 65 65 66 66 66 66 66 66 66 65 65 65 64 64 64 63 63 63
53 54 54 54 54 55 56 57 57 58 59 60 60 61 61 61 61 61 61 60 60 60 60 59 60 60 61 62 61 61 60 60 61 61 61 61 61 62 62 62 62 63 63 64 64 64 65 66 66 66 66 66 66 66 65 65 65 64 64 64 64 64 63
53 54 54 54 54 55 56 57 58 58 59 60 60 60 60 61 61 61 60 60 60 60 60 60 60 60 61 61 61 60 60 60 60 60 61 61 62 62 62 63 63 62 63 64 63 64 65 65 66 66 66 66 66 65 65 65 65 64 64 64 64 63 63
54 54 54 54 55 55 56 57 58 58 58 59 59 60 60 61 61 61 60 60 60 60 61 60 60 60 60 60 59 59 59 59 60 60 61 61 62 62 63 63 63 62 62 63 64 64 64 65 65 65 66 66 66 66 65 65 65 65 64 64 62 62 62
58 54 54 54 55 55 56 57 58 58 58 58 59 60 60 60 61 61 60 60 60 60 60 61 60 60 60 59 59 59 59 59 59 60 61 62 62 63 63 63 62 62 63 63 63 63 64 64 64 64 64 65 65 66 66 65 64 65 64 63 62 62 61
54 53 54 54 55 56 56 57 57 58 58 58 59 59 60 60 60 60 60 60 61 61 60 60 59 59 59 59 59 58 58 59 60 61 62 62 63 63 62 62 62 62 62 63 63 64 63 64 64 63 63 64 65 65 65 64 64 65 64 63 62 61 61
54 53 53 54 54 56 56 57 58 58 58 58 59 59 59 60 60 60 60 60 60 59 58 58 58 58 59 58 58 58 59 59 60 61 61 62 62 62 62 62 62 62 62 62 63 63 63 63 63 63 63 64 64 64 64 64 64 63 59 59 62 61 60
53 53 53 54 55 55 56 57 57 58 58 58 59 59 60 60 60 60 59 59 58 57 58 58 57 57 57 57 58 58 59 59 60 60 61 61 62 62 61 61 62 62 62 62 63 63 63 63 63 63 63 63 63 64 64 64 64 60 59 61 61 61 60
53 53 53 54 55 55 56 57 57 57 57 58 59 60 60 59 59 59 58 58 58 57 57 57 57 57 57 58 58 59 59 60 60 60 60 61 61 61 61 61 61 62 62 62 62 62 63 63 62 63 63 63 64 64 64 64 61 59 59 60 60 60 60
53 53 53 54 55 56 56 56 56 57 57 58 59 59 60 60 59 58 58 57 57 57 57 57 57 57 57 58 58 59 59 59 59 60 60 60 60 60 60 60 61 62 62 62 62 63 62 62 62 62 63 63 63 64 64 63 60 59 58 59 58 58 59
52 53 53 54 55 55 55 56 56 57 57 58 59 59 60 60 59 58 58 58 58 57 56 56 57 57 57 58 58 58 58 59 59 59 59 59 59 59 60 60 61 61 62 62 62 61 61 61 61 62 62 63 64 64 63 63 60 58 57 56 56 57 59
52 53 53 54 54 55 55 56 56 56 57 58 58 59 59 59 59 59 58 57 57 57 57 57 57 57 57 57 57 58 58 58 58 58 58 58 59 59 59 60 61 61 62 62 62 61 60 60 61 61 63 63 64 63 63 63 58 56 55 54 54 55 59
51 52 52 53 54 55 55 55 55 55 56 59 59 59 58 58 58 58 57 58 57 57 57 57 57 57 57 56 57 57 57 58 57 57 57 58 59 59 59 60 60 61 61 62 61 61 61 61 61 62 62 63 63 63 62 63 58 56 55 54 54 55 60
50 51 52 53 53 54 55 55 55 56 58 58 58 58 58 58 58 58 57 57 57 57 57 56 56 56 56 58 57 58 58 58 57 57 58 58 58 58 59 59 60 61 62 62 61 60 60 60 60 61 62 63 63 63 62 62 60 56 54 52 53 55 60
51 51 52 53 55 55 55 56 56 57 58 57 58 58 58 58 58 58 57 57 57 57 57 56 56 56 57 57 57 57 58 58 57 57 58 58 57 58 59 60 61 61 62 61 60 59 59 60 61 62 62 63 63 62 62 62 60 56 54 52 52 53 60
50 50 52 52 53 53 54 55 56 57 59 57 57 58 59 59 58 58 58 58 58 57 57 57 57 56 56 57 57 57 58 57 58 58 58 58 58 58 60 61 61 62 61 60 59 59 60 61 61 61 61 62 62 63 63 63 61 57 56 53 51 55 60
51 52 53 54 54 54 55 56 57 58 57 57 57 58 59 59 58 59 58 58 58 57 57 58 58 58 58 57 58 58 58 58 60 60 59 58 58 59 60 62 62 60 58 58 59 59 60 60 60 59 59 59 61 62 63 63 63 62 56 53 51 52 58
51 52 52 53 54 60 56 56 56 56 56 56 57 58 58 58 58 58 60 60 58 58 58 58 58 58 58 58 58 58 58 59 58 59 59 59 59 60 62 61 59 58 58 57 58 58 59 59 58 59 58 58 59 61 62 63 63 63 57 54 52 51 53
52 52 53 58 58 60 56 55 56 56 56 57 58 58 58 58 58 59 58 59 59 59 59 59 59 59 59 59 59 59 59 59 59 59 59 60 61 60 59 58 58 58 58 57 56 56 56 56 58 58 57 57 58 59 61 62 63 63 60 57 53 51 50
52 52 52 53 55 60 57 55 55 55 56 57 57 58 58 58 58 58 59 58 58 58 59 59 59 58 59 59 59 59 60 59 59 60 60 59 59 59 58 57 57 57 58 56 56 55 55 55 56 56 56 55 56 57 59 60 62 60 62 57 54 51 51
53 52 52 52 52 54 61 56 55 55 56 56 57 57 58 58 58 58 59 58 58 58 59 59 59 59 59 60 60 60 60 60 60 59 59 58 59 59 57 56 56 57 56 56 55 55 54 55 55 56 55 55 54 56 58 59 61 60 59 60 56 54 51
53 52 52 52 51 55 60 57 55 55 56 56 57 57 58 58 57 59 59 58 59 59 58 59 59 59 59 59 59 59 59 58 57 57 57 57 58 56 57 55 56 56 56 56 55 54 54 54 55 55 55 54 54 55 56 57 60 61 60 60 57 55 53
52 53 52 53 53 55 59 58 55 54 55 55 56 56 59 58 57 58 58 58 60 60 59 59 59 59 59 58 59 59 58 56 55 56 57 57 57 58 57 56 56 56 56 56 55 54 54 54 55 55 55 55 54 54 54 57 59 60 59 58 56 55 54
51 52 52 52 53 57 58 55 53 53 54 54 54 55 56 57 57 58 58 58 58 58 58 58 59 59 58 57 58 58 56 55 54 55 56 55 54 55 56 57 56 55 56 56 54 54 54 54 54 54 54 54 53 53 54 55 58 58 56 56 54 54 54
51 51 52 52 54 58 56 55 53 53 54 54 54 55 56 56 57 57 58 57 57 57 58 59 59 57 57 57 58 57 55 55 60 60 55 56 54 53 54 55 56 56 55 55 54 54 53 53 53 53 52 52 52 53 54 55 55 54 51 51 51 51 52
51 51 51 51 52 59 55 55 54 54 54 54 55 55 56 56 57 58 58 58 58 58 57 56 59 60 60 59 56 54 58 56 57 59 58 56 54 55 55 55 55 56 56 54 54 55 53 52 52 52 50 50 51 52 53 54 54 52 46 47 45 47 48
51 51 52 53 55 56 57 57 55 55 55 55 55 55 56 56 57 57 57 57 57 56 56 57 57 57 56 56 53 52 54 58 55 54 55 54 54 54 55 59 52 54 56 55 51 47 44 45 50 48 49 50 51 52 52 52 50 44 40 39 39 40 40
52 53 54 56 54 55 55 55 57 57 56 56 57 57 57 56 57 57 58 58 58 57 57 56 57 56 55 56 54 54 55 55 55 55 54 54 55 55 56 55 56 48 46 50 50 45 40 40 41 43 46 49 49 50 47 45 43 40 39 39 39 39 39
54 55 56 57 55 55 56 57 57 57 57 56 57 56 56 56 56 56 57 58 58 57 57 56 57 56 54 54 54 57 59 57 56 56 54 54 55 55 56 55 55 56 47 44 44 42 41 42 42 42 42 43 43 45 49 46 42 40 40 40 40 40 39

ECMWFFLT1_sfc_dewp_009.txt.gz
Dewpoint
63 64 65 66 65 63 62 62 63 63 65 66 67 66 66 67 67 67 66 66 65 65 65 65 65 66 65 67 69 70 71 71 70 69 69 68 67 66 66 65 65 66 66 65 65 65 66 67 67 67 68 68 69 69 69 69 69 69 69 70 70 69 70
62 63 64 65 64 63 63 63 64 63 64 65 66 67 66 67 68 66 65 65 65 64 65 65 65 65 67 67 70 69 69 70 70 70 69 69 68 67 66 65 66 65 66 66 65 66 66 66 67 67 67 67 67 68 68 68 69 69 68 69 69 69 69
62 62 63 64 64 63 63 63 64 63 64 64 64 65 65 67 68 67 66 65 66 66 66 66 65 65 67 68 68 68 68 69 69 69 68 67 67 67 66 66 66 65 65 65 66 65 66 66 67 67 66 67 66 67 67 67 67 67 67 67 67 67 68
62 62 63 64 64 64 63 63 63 62 62 63 64 64 66 68 69 68 67 66 64 65 65 65 65 66 67 67 68 68 68 68 69 68 67 67 66 67 67 67 67 66 66 66 65 65 66 66 66 66 67 66 67 68 67 67 67 66 66 66 65 66 66
62 62 62 63 63 63 62 62 62 63 61 62 64 67 67 68 68 67 67 67 65 64 64 65 65 67 68 68 68 68 68 68 68 68 67 67 67 68 67 66 66 65 66 66 66 66 66 66 66 66 66 67 67 67 67 67 66 66 66 66 65 65 65
62 62 62 61 61 61 61 60 60 59 60 60 64 65 65 63 64 62 64 66 66 66 66 66 66 67 67 68 68 68 68 68 67 67 67 67 67 67 66 66 65 65 65 67 66 66 66 66 66 65 66 66 66 66 66 65 65 65 65 65 65 65 64
62 62 61 61 61 61 61 60 59 59 60 62 64 65 62 61 62 61 62 63 64 65 65 64 64 65 65 67 68 68 68 67 67 67 67 67 67 67 67 66 66 66 66 67 66 66 66 66 66 67 66 67 66 66 66 66 65 65 65 65 64 64 65
62 61 62 61 60 60 59 60 60 59 61 63 63 60 60 62 62 61 61 60 61 60 60 60 64 65 65 66 66 66 66 66 66 66 66 67 68 68 67 66 66 66 67 66 67 67 66 67 66 67 66 65 66 66 66 66 66 65 65 64 63 64 63
61 62 61 60 60 59 59 60 60 62 63 64 64 64 64 65 62 62 61 61 61 61 61 59 60 64 66 65 65 66 67 66 65 65 67 67 67 66 65 64 65 66 66 66 65 66 67 66 67 67 66 66 66 66 66 67 66 66 65 63 63 63 63
61 61 61 60 60 59 61 60 62 63 64 65 65 65 65 65 65 64 62 61 61 61 62 62 61 61 64 65 65 66 66 66 65 66 65 64 66 65 64 63 65 66 67 66 66 66 67 67 67 67 66 66 66 66 65 65 65 65 65 65 64 63 63
61 61 61 60 61 61 61 60 62 63 64 65 65 65 66 66 66 65 65 63 61 61 60 62 63 62 63 64 63 64 66 65 64 64 64 64 62 63 62 62 62 64 66 66 66 66 66 66 66 66 66 66 66 66 65 63 63 63 64 63 64 63 62
60 60 60 61 61 61 60 61 63 64 64 65 65 65 66 67 66 66 65 65 63 62 63 62 62 61 61 60 62 64 64 64 65 64 64 63 63 64 65 66 67 66 64 65 64 65 66 66 66 66 66 66 67 66 65 64 64 65 64 64 64 63 62
59 59 60 60 61 61 62 62 63 64 65 64 65 66 66 65 65 65 66 66 64 64 64 64 65 65 63 62 62 64 63 63 64 65 63 65 65 66 65 65 64 63 63 63 64 64 64 65 66 66 66 67 67 66 66 66 66 66 65 65 64 63 63
59 59 60 61 61 61 60 61 63 64 64 64 65 66 65 65 65 66 66 65 65 64 63 63 65 65 63 63 64 64 63 63 65 65 66 66 67 67 67 67 67 67 66 66 65 64 64 65 66 66 66 66 66 66 66 66 66 66 66 65 64 64 63
57 57 58 58 60 61 61 62 63 64 64 65 65 65 65 65 65 66 67 66 66 64 63 65 66 65 63 64 64 64 64 65 65 66 66 66 67 67 67 67 67 67 66 66 66 66 65 65 65 66 66 66 66 67 66 66 66 66 65 64 64 64 63
57 57 57 58 59 60 61 62 63 64 64 65 65 65 64 65 66 65 65 65 64 65 65 66 65 64 63 63 63 64 65 65 66 66 66 67 67 66 66 65 66 65 65 66 65 66 66 67 67 65 65 65 66 66 66 66 66 64 60 60 64 63 62
57 57 57 58 59 60 61 62 63 64 64 64 65 65 65 65 65 66 64 63 63 65 65 65 64 64 63 63 63 64 65 65 66 66 66 67 67 66 66 65 65 65 66 66 67 67 67 67 66 65 64 64 65 65 66 65 65 61 59 60 61 63 62
57 58 58 58 59 60 61 61 62 63 63 64 65 65 65 65 66 66 65 64 64 63 64 64 63 62 63 62 63 64 65 65 66 66 66 66 66 65 65 64 64 65 66 66 66 67 67 67 66 65 65 65 65 65 66 66 63 60 59 60 60 60 62
57 58 58 59 60 61 60 60 61 63 64 65 65 65 65 66 65 65 66 66 66 66 64 63 62 63 63 63 63 64 65 65 65 65 65 66 65 64 64 64 65 65 65 65 65 66 67 66 65 65 65 65 66 66 65 65 63 60 58 59 58 59 60
58 58 58 58 59 59 61 62 62 63 64 65 65 63 65 66 66 66 66 65 66 65 64 64 64 63 62 63 63 64 65 65 65 64 65 65 65 64 64 64 65 65 65 65 66 66 66 66 66 66 66 66 66 66 66 66 63 60 58 56 56 57 59
58 58 58 59 60 60 62 63 63 64 64 64 63 64 64 65 65 65 65 65 64 64 64 64 63 63 63 62 63 64 64 64 64 64 64 64 64 64 64 65 65 65 64 65 65 65 65 65 65 65 65 65 65 65 65 65 61 58 56 55 54 54 57
57 57 58 59 60 61 63 63 63 63 63 64 64 63 62 63 63 63 63 64 63 64 63 63 63 62 63 62 63 63 63 63 63 64 64 63 64 64 64 64 65 64 65 65 64 65 65 65 65 64 64 64 65 65 64 63 60 58 56 54 54 54 61
55 56 58 60 60 62 64 64 64 64 65 64 63 63 63 62 62 63 63 63 62 63 63 62 62 62 63 62 62 63 63 63 63 63 64 63 63 63 62 62 63 64 65 64 63 63 64 64 63 64 64 64 64 64 63 62 62 58 55 54 53 55 62
54 57 60 59 61 61 63 63 63 63 62 62 63 63 63 63 62 63 64 63 63 62 61 62 61 62 63 63 63 64 64 64 63 63 63 63 62 61 60 60 63 64 64 63 61 60 60 61 62 64 64 63 62 60 60 60 61 57 53 53 55 53 62
52 53 57 58 58 59 61 62 63 62 63 63 62 63 64 64 63 62 63 63 62 61 61 62 63 63 63 63 64 64 64 63 64 63 62 63 62 61 60 61 62 62 63 62 61 61 63 63 63 63 62 59 60 63 61 59 59 58 54 54 54 58 62
57 56 57 59 59 60 63 63 63 62 62 62 63 64 64 63 62 62 62 61 60 61 62 63 63 65 64 64 63 63 63 63 64 64 64 64 63 63 62 62 61 60 59 60 59 58 58 61 62 62 60 58 61 59 61 61 61 64 57 54 54 53 59
57 57 57 55 55 60 60 61 62 62 63 63 64 63 63 62 62 63 64 64 64 63 63 64 65 64 64 64 63 63 63 64 64 64 64 64 63 62 61 62 60 60 61 57 57 59 61 60 60 59 61 59 60 60 60 59 59 62 59 55 53 53 54
55 54 55 57 59 61 60 58 61 62 61 63 63 62 62 63 63 64 64 64 63 64 64 65 64 64 64 64 64 64 63 64 65 65 64 65 64 63 62 62 62 60 60 58 59 60 60 61 60 59 60 60 60 61 62 62 62 62 61 57 53 52 52
56 56 55 57 59 59 59 60 59 59 60 59 59 61 61 62 63 64 64 63 64 65 65 64 64 64 64 64 64 64 64 65 65 65 65 64 63 62 61 61 61 62 62 61 60 60 59 59 59 58 56 57 58 61 62 63 63 61 63 57 53 50 50
59 58 57 54 53 57 59 61 61 60 61 57 60 61 62 63 63 64 64 63 65 65 64 64 63 64 64 64 65 65 65 64 64 66 65 64 64 62 61 60 60 61 62 61 59 58 57 57 58 58 55 54 54 58 60 62 63 62 59 59 54 50 49
59 59 58 57 54 57 58 59 62 61 61 61 62 63 63 63 63 63 63 64 65 64 63 63 63 64 64 64 64 65 64 63 64 64 63 61 62 60 59 58 59 59 61 61 59 58 58 57 56 57 56 56 56 57 58 60 62 62 61 57 55 53 50
59 59 57 57 58 58 58 58 59 59 60 62 62 63 63 63 63 63 64 65 63 63 63 63 63 63 63 63 63 63 62 62 62 64 61 60 60 60 60 58 56 57 59 59 57 58 58 57 55 55 55 55 54 56 56 59 61 62 60 58 57 55 53
61 59 59 59 60 59 58 59 58 58 59 60 61 60 59 61 61 63 64 63 62 62 63 63 62 62 63 63 62 62 62 62 60 59 59 59 58 58 58 58 57 58 58 58 56 56 56 55 55 54 54 54 54 55 57 58 58 59 56 54 54 54 54
60 60 59 58 58 58 58 59 59 58 59 60 61 60 59 59 60 61 61 58 57 58 61 62 62 61 62 61 60 60 62 62 62 60 55 55 54 51 53 54 54 56 58 56 56 56 55 55 55 55 54 53 54 55 55 56 56 55 51 49 49 49 50
60 60 59 58 58 59 59 60 59 60 60 60 59 58 59 58 57 56 59 59 59 61 62 62 63 62 61 59 59 59 62 61 61 59 55 55 58 58 60 56 55 58 57 56 56 55 55 56 54 53 52 53 54 53 54 54 53 52 47 47 44 45 47
60 59 58 57 57 58 60 60 60 60 60 60 59 59 59 59 59 59 56 58 60 62 62 62 61 59 55 56 55 52 53 56 55 56 57 52 55 56 59 54 46 55 56 53 49 47 45 46 52 50 51 52 54 53 51 50 50 47 42 41 40 40 40
59 58 57 58 57 58 58 59 59 60 59 59 59 58 59 59 58 60 58 62 61 60 62 61 60 57 55 56 53 55 56 54 53 57 60 58 57 57 55 54 53 44 46 49 49 45 41 42 43 44 46 51 52 51 49 48 45 42 42 41 41 39 39
59 59 58 59 58 59 59 59 59 59 60 60 60 59 60 58 58 61 58 60 61 61 62 61 59 58 57 56 56 60 60 58 58 58 57 57 58 58 56 57 54 53 43 43 45 44 42 41 41 41 41 43 45 48 51 47 44 42 42 42 42 41 40

ECMWFFLT1_sfc_dewp_015.txt.gz
Dewpoint
54 55 57 54 55 55 59 64 67 69 70 69 68 67 64 65 66 68 68 69 68 68 68 69 69 68 66 66 67 67 66 64 65 64 64 64 64 65 65 65 64 65 64 64 65 64 65 66 66 65 65 65 65 66 68 70 70 68 67 68 68 68 69
54 53 56 58 54 57 62 66 69 68 68 69 67 66 64 66 67 68 68 68 68 68 69 69 68 67 66 66 67 66 65 64 64 64 64 64 65 64 64 64 64 65 66 66 65 66 66 65 65 65 65 65 65 65 66 67 68 69 66 66 65 66 67
56 54 57 59 55 52 62 66 68 67 68 67 65 64 64 67 68 69 68 67 67 69 70 69 68 67 66 66 66 66 65 64 63 63 64 62 63 62 63 63 63 63 64 65 65 65 65 65 66 66 65 65 64 65 66 66 66 66 66 67 67 65 67
56 54 57 61 63 61 62 64 66 65 65 65 65 64 66 68 68 69 67 67 66 68 69 68 67 66 67 67 66 66 65 65 65 64 63 63 63 64 63 63 64 64 64 64 64 64 65 65 65 65 65 65 65 66 66 66 66 67 67 67 67 66 66
58 58 57 59 62 63 60 65 66 64 63 63 64 66 67 69 68 67 66 66 66 67 68 67 66 66 67 67 66 66 65 65 65 65 65 64 64 64 63 62 62 63 63 63 64 64 65 65 64 64 64 65 64 64 62 63 64 65 65 66 66 66 64
56 59 58 59 61 60 58 63 63 60 60 59 62 65 66 66 64 61 63 66 66 66 67 67 66 67 67 68 67 65 66 65 65 65 65 65 64 63 62 62 62 63 62 63 62 62 63 63 63 64 64 62 62 62 61 62 63 62 64 65 66 66 65
57 60 60 60 63 62 64 64 61 59 58 57 61 63 64 63 60 58 59 63 63 65 65 65 66 66 67 67 67 67 66 65 65 65 65 64 64 64 63 63 63 63 63 64 63 63 62 62 63 64 64 63 65 64 64 65 65 65 66 66 66 66 66
57 60 61 62 62 61 61 62 61 58 57 58 60 61 61 59 56 54 57 59 59 58 59 59 65 66 67 67 66 66 66 66 65 64 64 64 64 63 63 62 62 63 64 62 63 62 61 62 62 63 63 64 65 65 65 66 66 64 64 64 65 65 64
59 62 62 62 62 59 58 63 61 59 60 61 64 64 61 58 54 54 55 56 57 56 57 57 60 65 68 67 66 66 65 64 63 64 63 63 62 60 59 57 59 60 60 61 60 62 62 61 62 63 64 65 65 66 66 66 66 64 63 64 65 66 65
61 64 65 61 61 58 61 62 61 62 61 63 65 65 61 57 57 55 54 53 54 55 56 56 54 59 66 67 66 65 64 63 64 63 61 58 60 58 57 55 56 58 57 59 57 58 61 62 62 62 63 63 65 65 66 66 67 67 64 63 64 65 65
63 66 66 64 64 63 64 63 62 63 64 65 66 64 62 59 57 55 56 54 51 52 52 55 56 54 61 65 64 64 64 62 62 62 62 60 56 55 54 52 52 55 55 56 57 58 59 59 60 61 62 63 64 65 65 65 65 64 63 64 65 65 65
65 66 66 66 65 64 64 65 63 64 64 65 65 63 62 63 59 58 57 56 53 51 52 53 54 55 57 57 60 61 61 62 62 61 60 59 57 56 57 57 58 56 54 54 53 55 53 56 57 58 61 62 65 67 68 68 67 68 67 66 64 64 64
64 66 67 66 66 65 66 66 64 64 64 65 65 64 63 62 59 57 60 58 52 53 53 57 57 60 58 57 55 59 59 60 61 62 59 60 60 60 58 57 56 55 55 55 55 54 53 54 57 58 59 61 63 64 64 66 66 66 67 67 66 66 65
66 66 68 68 67 66 66 66 66 65 67 67 66 66 64 63 60 60 61 58 56 54 53 55 61 61 60 59 59 59 59 60 60 61 61 60 62 61 61 60 61 61 60 59 57 54 54 53 55 56 58 59 59 61 63 63 63 65 65 66 66 65 64
63 65 67 67 68 67 66 66 67 68 68 67 66 65 64 62 61 62 63 59 60 55 56 60 62 63 61 62 61 61 61 61 61 61 61 61 61 61 61 61 61 61 60 60 57 56 54 55 55 58 59 59 60 62 62 64 63 64 65 65 65 64 60
62 63 65 66 67 67 67 67 69 69 69 67 66 65 63 62 63 62 61 58 57 59 58 62 64 65 63 61 62 62 63 63 63 62 62 62 61 62 61 60 61 60 59 58 57 57 58 60 59 58 57 58 59 61 62 63 64 65 64 64 66 63 61
61 61 63 66 67 67 67 68 70 69 68 66 66 65 63 63 64 66 58 55 55 60 60 62 65 65 64 63 62 62 63 63 63 63 62 62 62 62 62 61 61 61 60 59 58 59 60 59 58 57 57 58 59 60 61 62 64 62 62 62 63 63 62
55 61 62 64 67 68 68 69 69 69 67 65 66 65 64 65 63 61 60 55 56 57 59 62 64 65 65 64 63 62 62 62 62 62 62 62 62 62 62 61 61 61 60 59 58 59 59 58 59 59 59 59 60 60 60 60 64 60 61 62 62 63 63
54 58 62 64 66 67 67 67 68 69 67 65 64 64 64 64 60 62 61 60 60 60 60 62 62 65 65 64 63 63 63 63 62 62 62 63 63 63 62 62 61 60 59 57 58 58 59 59 58 59 59 60 60 60 59 59 60 59 60 61 61 62 63
55 58 61 62 64 65 68 68 68 67 67 66 65 63 63 64 63 64 62 59 61 60 62 64 64 65 64 64 63 62 63 62 62 62 62 62 63 62 62 61 61 59 57 57 58 59 58 58 58 58 58 58 59 59 58 59 60 59 59 59 60 61 62
59 60 62 63 65 65 67 68 68 68 67 65 63 63 61 62 63 63 61 61 61 61 63 64 65 64 64 63 63 62 62 61 62 62 62 63 62 63 62 61 61 59 58 56 56 58 59 58 57 57 57 55 55 56 56 57 58 57 58 58 58 59 60
58 59 62 63 65 66 68 67 68 67 67 65 62 60 59 61 61 59 61 61 61 62 64 65 64 64 63 62 62 62 62 61 62 63 63 63 62 62 62 61 61 59 59 58 56 58 57 57 56 55 55 56 56 55 56 56 57 57 57 57 57 59 63
55 58 61 64 64 65 68 68 68 67 67 64 62 61 59 60 59 60 60 60 58 61 63 64 64 63 62 61 60 61 61 61 61 62 63 62 62 63 62 61 60 59 59 58 57 57 56 57 54 56 55 56 57 57 60 59 57 55 55 55 56 57 64
54 59 62 63 66 65 68 68 67 67 65 64 63 61 60 59 60 62 62 61 59 58 61 63 63 63 62 61 61 61 61 62 62 62 62 62 61 61 61 59 59 58 58 56 55 55 56 56 56 57 57 56 56 56 57 55 56 54 52 53 55 59 64
53 58 62 63 64 66 67 68 68 67 66 65 63 63 63 62 60 61 62 60 56 57 60 63 62 61 61 61 61 61 61 61 62 61 60 61 60 60 59 59 59 58 58 56 57 58 59 56 56 55 57 53 56 59 55 56 58 51 52 53 55 59 65
59 61 63 64 65 68 69 69 68 67 65 64 66 66 65 63 61 60 60 60 57 57 59 62 62 62 62 62 61 61 62 62 63 63 61 60 60 61 60 59 57 57 56 57 55 54 55 54 55 55 55 56 56 55 55 58 60 64 52 53 54 55 63
60 61 62 61 63 68 68 68 67 65 64 66 67 66 65 63 64 63 63 64 64 62 59 61 63 63 63 63 60 60 61 62 63 62 61 60 60 59 59 59 58 58 58 54 54 55 56 55 56 55 56 56 56 57 59 59 62 64 54 52 53 54 55
58 59 58 61 66 67 67 64 67 66 64 66 67 67 65 67 67 67 66 65 64 64 62 62 63 63 64 64 62 61 61 62 65 63 61 61 61 62 60 60 60 59 57 55 56 58 57 58 58 57 56 57 58 61 64 63 63 64 55 51 50 50 52
58 56 58 64 64 64 60 61 62 59 58 58 59 64 66 67 68 68 67 66 66 66 65 63 63 63 64 64 63 64 63 63 63 62 61 61 61 61 61 62 62 62 62 61 59 59 58 58 59 57 56 58 60 59 58 61 66 60 63 51 52 49 50
57 57 60 55 53 57 53 60 59 56 55 51 56 60 65 67 67 67 67 67 67 66 66 65 63 64 64 65 65 64 63 62 62 62 62 62 62 62 62 62 63 64 64 63 60 59 58 57 57 60 58 56 54 58 57 63 67 62 60 60 54 52 50
55 56 54 50 50 56 55 57 61 59 60 63 65 67 68 67 66 66 66 66 66 66 65 65 64 64 65 66 66 65 63 62 62 61 62 62 62 62 62 63 63 63 64 63 63 61 58 58 58 57 60 57 54 56 57 57 62 64 63 59 57 54 52
57 56 51 52 58 59 57 55 57 60 62 66 67 67 66 66 65 65 65 66 65 65 64 65 65 65 66 66 65 64 63 62 61 62 62 62 62 62 62 61 62 61 61 61 64 58 58 58 60 59 57 55 58 53 56 55 54 64 61 58 58 55 54
60 58 57 60 63 61 58 57 54 56 57 59 62 63 61 65 65 66 66 66 64 64 66 66 66 66 67 66 63 64 64 63 61 61 63 64 62 60 58 58 60 60 62 62 62 57 57 60 55 55 54 62 55 53 53 55 54 58 56 56 56 56 56
61 61 63 64 62 62 60 59 58 59 61 62 63 63 62 58 58 58 60 58 56 56 63 66 66 65 65 65 64 63 63 63 63 62 60 62 60 58 59 61 61 63 62 61 60 55 57 56 54 54 57 56 51 53 55 53 54 56 53 52 52 52 53
63 64 64 63 62 63 64 62 61 62 59 62 62 61 60 60 57 52 52 50 56 60 59 62 65 65 64 63 63 61 62 60 62 63 61 59 59 62 61 60 62 63 61 59 59 59 58 54 52 53 52 51 52 55 54 54 55 53 45 49 44 46 48
63 62 62 62 62 63 62 61 60 60 60 62 61 61 61 60 59 59 52 50 51 56 59 63 64 63 61 58 56 58 59 60 59 60 60 62 62 60 56 49 43 49 61 54 49 46 45 49 56 52 54 51 58 57 53 52 51 44 42 40 40 40 40
60 58 57 57 59 60 61 61 60 61 60 62 61 60 59 59 57 59 57 57 59 58 61 62 61 58 55 54 53 54 57 55 61 58 62 58 56 59 58 55 54 43 43 47 48 44 41 41 42 44 45 54 55 51 47 47 44 42 40 40 39 39 39
56 56 56 56 59 60 61 61 60 61 61 62 60 60 60 57 57 60 55 57 59 60 61 61 60 59 56 54 53 62 60 59 56 57 55 55 58 62 61 58 56 54 43 41 44 43 41 41 41 41 41 42 46 49 53 49 44 41 40 40 40 39 39

ECMWFFLT1_sfc_dewp_021.txt.gz
Dewpoint
50 52 55 55 56 56 61 63 65 66 68 68 69 70 69 66 65 66 66 67 67 68 68 68 67 68 69 68 70 69 65 67 67 69 66 69 70 66 64 67 66 66 66 65 65 66 67 68 67 67 68 68 67 67 67 67 69 70 69 69 67 68 67
49 53 54 56 56 58 62 64 65 66 68 68 69 70 68 65 65 66 66 67 67 68 67 68 68 69 69 69 69 68 67 68 68 70 68 69 69 67 66 67 66 64 63 63 66 68 67 67 66 67 67 67 67 67 67 67 67 67 67 67 65 65 66
49 51 54 56 57 60 62 64 66 66 68 69 69 69 67 65 65 66 67 67 67 68 67 68 69 69 69 69 68 67 67 66 67 66 66 64 64 64 67 67 65 64 66 66 65 67 68 67 67 66 66 66 67 67 67 67 66 67 67 67 66 65 65
50 51 55 57 58 61 63 64 66 66 68 69 69 69 67 66 66 67 68 67 68 68 67 67 69 68 69 69 68 68 67 66 66 65 65 65 66 66 66 66 66 64 63 65 67 66 65 65 66 66 69 66 66 67 67 66 66 66 66 66 67 67 67
51 56 56 57 58 62 63 64 65 66 68 69 69 69 66 66 67 67 68 67 69 67 67 68 69 69 69 68 69 68 67 66 66 65 66 66 67 68 64 63 63 64 65 66 65 67 67 66 65 65 65 66 66 65 66 67 66 66 66 66 65 66 66
53 59 57 58 59 63 63 64 65 67 68 69 69 69 66 66 67 68 68 68 69 69 68 69 68 70 68 68 68 68 68 67 66 67 65 66 65 64 63 64 63 64 64 62 65 65 65 63 63 64 65 64 63 64 64 65 65 65 65 65 65 66 66
56 59 58 59 60 62 62 63 66 68 68 69 69 68 66 66 66 67 68 68 68 68 68 68 68 69 68 68 68 68 67 67 66 66 66 66 66 65 65 64 65 63 62 65 64 65 64 63 64 65 65 64 65 64 64 65 65 66 66 65 65 66 66
57 59 59 59 59 62 62 63 66 69 69 69 68 67 65 66 66 66 68 68 67 68 68 68 68 68 68 68 68 67 66 66 65 66 65 65 65 65 66 65 65 64 64 63 63 65 64 64 64 65 64 64 64 65 65 65 65 66 65 65 65 65 66
58 58 58 58 59 60 62 63 65 68 69 68 68 67 65 65 65 66 67 67 66 67 68 68 68 67 68 68 67 67 67 67 66 66 66 65 65 65 66 65 63 64 64 64 64 65 64 64 64 64 64 64 64 64 65 65 65 66 65 65 65 64 64
59 57 57 56 57 58 61 63 63 65 67 68 68 66 64 64 65 66 66 66 65 66 67 67 67 67 67 68 68 67 67 67 67 66 65 65 65 64 63 62 62 64 63 63 63 63 65 65 65 64 64 64 64 65 65 65 66 66 66 66 65 64 64
59 59 58 57 56 57 61 63 64 65 66 67 67 66 65 65 65 65 65 65 63 65 66 65 66 66 67 67 67 67 67 66 66 65 64 63 62 62 61 61 59 63 60 60 61 61 61 62 64 64 64 64 64 64 64 65 65 66 66 66 65 65 64
62 62 61 59 58 58 60 63 64 65 65 65 65 65 65 65 65 64 64 63 62 63 64 63 64 65 66 66 65 66 66 65 64 63 63 62 61 60 60 60 59 59 60 62 59 61 61 60 61 62 62 63 64 64 64 64 66 65 65 66 66 63 62
65 63 64 60 61 60 60 63 64 65 64 64 64 64 64 64 63 62 62 62 60 61 62 61 64 65 66 65 65 65 65 65 64 63 62 63 62 62 61 60 59 60 62 62 61 60 59 59 59 62 63 63 62 62 63 63 64 64 66 66 64 63 63
69 65 66 65 62 63 62 63 64 65 64 63 63 64 63 63 62 61 61 60 58 58 60 60 64 65 65 65 65 65 64 64 63 63 63 63 64 63 62 62 63 62 63 63 61 61 60 59 58 59 61 61 61 61 62 61 61 63 65 66 64 63 62
65 66 67 67 63 64 63 63 64 64 64 63 62 63 63 62 61 61 61 60 59 58 59 63 64 65 65 65 65 65 64 64 63 63 63 64 63 63 62 63 63 64 64 63 63 64 61 60 60 60 60 61 61 61 62 63 63 66 66 65 63 63 63
61 65 65 66 65 64 64 64 64 64 64 63 62 64 63 63 62 61 61 58 57 60 61 64 65 65 65 64 65 65 64 64 64 64 63 63 62 62 62 62 63 63 63 63 63 63 63 61 62 62 60 60 62 62 63 62 64 67 65 64 64 65 65
56 60 63 63 66 66 65 65 65 64 63 63 63 64 65 63 63 61 58 54 58 61 61 61 62 62 62 63 64 63 63 63 63 63 63 63 62 63 63 63 63 63 63 64 63 62 62 63 60 58 60 61 60 59 61 62 63 64 62 62 63 64 64
47 57 61 61 63 67 67 66 66 65 64 63 64 65 64 63 62 58 55 56 58 61 62 61 60 62 63 63 63 63 63 62 62 63 63 63 63 63 63 64 63 63 63 63 63 63 63 62 62 62 61 61 60 60 60 61 64 60 60 61 61 62 63
59 59 61 64 66 67 67 66 66 66 65 63 65 65 64 63 60 57 58 58 58 62 63 63 63 63 63 63 63 63 63 63 63 63 63 63 63 63 64 63 63 63 63 63 63 63 63 62 62 62 62 61 61 61 61 60 61 58 58 59 60 60 62
59 58 62 64 66 67 66 66 65 66 66 65 66 65 63 62 59 60 60 60 61 62 62 64 63 63 63 63 64 63 63 64 64 63 63 63 63 64 63 64 63 63 63 63 63 62 62 62 61 61 62 62 61 61 61 60 59 57 57 57 58 59 61
57 59 59 59 65 65 66 66 65 66 66 66 66 64 63 63 61 60 60 60 59 59 60 61 64 64 64 64 64 64 64 64 64 64 64 64 64 63 63 63 63 63 63 63 62 61 61 61 61 62 63 62 60 59 59 62 57 56 56 56 56 57 60
55 53 55 57 57 65 66 66 66 66 66 67 66 65 63 61 59 59 60 59 58 60 60 60 63 65 65 64 64 64 64 64 64 63 64 63 63 63 63 63 63 63 63 63 62 61 61 61 62 61 60 60 60 60 61 62 57 56 56 55 55 58 60
47 50 51 57 61 66 66 66 66 68 68 67 66 65 63 60 58 59 60 59 60 61 60 61 64 65 65 65 65 64 64 64 63 63 63 63 63 63 63 63 63 64 64 63 62 61 60 60 60 60 60 59 60 61 60 61 59 54 54 53 55 57 60
52 53 60 65 71 72 71 70 68 70 69 67 66 65 62 58 58 58 58 59 60 59 60 62 63 65 66 65 65 65 64 64 63 63 63 63 62 62 62 63 64 64 65 63 62 61 60 60 60 60 61 60 60 61 59 59 58 53 52 53 55 59 61
49 61 64 68 69 70 71 71 70 70 69 67 65 64 61 58 56 57 56 57 57 58 60 63 63 64 65 65 65 65 65 64 63 63 63 62 62 62 62 63 63 64 65 63 62 61 60 60 58 59 60 60 58 64 59 57 57 50 51 53 54 57 60
65 64 66 67 69 70 71 71 71 70 68 66 65 63 60 57 57 57 57 58 58 59 60 62 64 65 65 66 66 66 65 64 64 63 62 62 62 62 62 63 63 64 64 63 62 61 60 60 59 58 58 57 57 62 60 60 61 57 52 52 53 56 60
64 65 65 66 68 71 70 70 69 69 68 66 65 63 61 58 58 58 60 61 60 60 61 62 63 65 65 66 66 65 65 64 64 63 62 62 62 63 63 63 64 64 62 62 61 61 60 59 58 58 59 59 60 61 61 63 62 59 52 51 53 55 57
63 64 64 67 69 69 70 70 69 68 67 67 65 63 62 60 60 61 63 62 61 61 62 63 64 65 65 66 66 65 64 64 64 64 64 64 64 64 65 65 65 64 64 64 61 61 61 61 60 59 60 60 61 61 61 63 64 61 55 52 51 51 53
61 62 66 67 67 69 69 68 68 66 66 66 64 64 63 63 63 64 64 63 63 67 69 68 65 65 67 67 66 65 64 64 63 63 65 64 64 64 64 65 64 64 64 64 64 62 61 62 62 60 60 60 61 60 60 61 63 61 60 52 49 48 49
58 60 67 67 68 68 67 66 64 64 66 66 65 66 65 66 66 67 66 67 68 69 69 69 69 69 68 67 67 66 65 63 64 66 65 64 64 63 62 63 64 64 64 63 62 60 59 61 62 61 59 59 59 59 59 62 63 61 61 57 50 47 47
65 66 66 66 65 65 65 65 63 63 64 65 66 67 68 68 68 68 67 67 67 67 67 68 68 67 67 67 67 67 66 67 65 63 62 64 63 62 62 62 63 62 62 62 61 60 59 59 60 60 60 59 58 58 60 63 62 60 61 59 56 50 47
63 62 62 63 64 64 64 64 64 64 64 64 66 68 69 69 68 67 66 66 66 65 66 67 66 65 66 67 67 68 67 66 63 62 62 62 62 62 63 63 63 61 60 60 61 61 60 59 58 59 58 58 58 60 60 61 62 61 61 61 59 56 54
63 64 64 63 64 64 63 64 64 64 64 65 65 64 65 65 65 65 65 65 66 66 67 67 67 67 67 67 68 67 66 64 64 63 62 61 61 62 63 63 62 60 59 59 59 60 60 59 59 59 59 58 59 59 60 60 61 58 55 54 54 54 54
62 62 63 63 63 63 63 63 63 64 64 64 64 65 65 65 65 66 65 63 56 60 66 66 67 67 67 67 67 66 65 65 67 64 62 63 62 61 61 61 61 61 60 59 59 58 58 58 59 60 59 59 60 59 59 58 55 52 52 51 51 51 50
62 63 64 63 63 63 62 62 63 63 63 63 62 60 57 56 52 51 55 59 63 63 63 64 65 65 65 66 66 66 66 64 63 63 62 62 60 53 51 52 55 58 57 50 50 55 59 60 59 60 60 61 58 57 57 57 56 53 47 52 46 48 47
63 63 63 63 63 63 63 63 62 62 61 60 61 61 59 59 56 52 53 59 63 65 63 64 63 62 60 61 63 63 65 63 61 61 62 62 58 51 50 49 43 45 57 53 49 45 43 47 57 57 57 51 52 56 58 56 53 45 42 41 40 40 41
62 61 62 63 62 62 62 62 63 63 61 61 61 58 58 59 60 59 61 62 61 62 62 64 64 62 61 59 58 63 65 62 61 61 61 62 60 54 52 51 49 42 42 47 47 43 40 40 42 45 51 54 51 49 47 47 43 41 41 40 39 39 39
62 61 60 61 61 61 62 62 62 62 61 61 59 60 60 61 62 61 59 62 62 61 61 62 63 61 60 59 60 66 65 64 63 63 62 62 62 58 56 54 51 50 43 41 43 42 40 39 40 42 44 46 49 48 49 45 41 40 40 40 40 40 39